EHI
0 0 1 2 2 1 0 0 0 0 0 0 0 0 0 0 0 0 0 0 0 0 1 4 6 7 7 5 5 6 8 8 6 4 3 2 3 3 3 2 1 0 0 1 2 3 3 2 1
0 0 2 3 2 1 0 0 0 0 0 0 0 0 0 0 0 0 0 0 0 0 1 4 6 7 7 6 6 7 8 8 5 4 3 2 2 2 2 1 0 0 0 1 2 2 2 1 0
1 3 6 5 2 0 0 0 0 0 0 0 0 0 0 0 0 0 0 0 0 0 1 3 5 7 7 7 6 6 7 7 5 4 3 3 2 2 2 1 0 0 0 0 1 1 1 0 0
5 7 8 5 1 0 0 0 0 0 0 0 0 0 0 0 0 0 0 0 0 0 1 2 4 5 6 6 5 5 6 6 5 4 4 3 3 4 4 3 1 0 1 1 1 0 0 1 1
10 9 6 2 0 0 0 0 0 0 0 0 0 0 0 1 0 0 0 0 0 0 0 2 4 4 4 4 4 4 5 4 4 4 4 4 4 4 4 3 1 0 1 2 2 1 1 2 2
9 7 3 0 0 0 0 0 0 0 0 0 0 0 0 0 0 0 0 0 0 0 0 1 2 3 3 3 3 3 3 3 3 4 4 3 3 4 3 3 1 1 2 3 3 2 2 2 2
5 3 1 0 0 0 0 0 0 0 0 0 0 0 0 0 0 0 0 0 0 0 0 0 1 2 2 2 3 2 2 2 3 3 3 3 3 3 3 2 1 1 1 2 2 2 1 1 1
3 2 0 0 0 0 0 0 0 0 0 0 0 0 1 1 1 0 0 0 0 0 0 0 1 2 2 2 3 2 2 3 3 3 3 3 3 3 3 2 1 1 1 1 1 1 0 1 2
2 1 0 0 0 0 0 0 0 0 0 0 0 1 2 2 1 0 0 0 0 0 0 1 2 2 1 1 3 3 3 4 4 4 3 3 2 3 3 3 3 1 0 0 0 0 1 2 4
1 0 0 0 0 0 0 0 0 0 0 0 1 2 4 3 1 0 0 0 0 0 1 2 3 2 1 1 2 2 2 4 4 4 4 3 3 3 3 4 4 2 1 1 1 0 1 2 4
0 0 0 0 0 0 0 0 0 0 0 1 4 6 6 4 1 0 0 0 0 0 1 2 2 1 0 0 1 1 2 3 4 4 4 4 4 4 3 4 3 2 1 1 1 1 1 1 3
0 0 0 0 0 0 0 0 0 0 1 3 8 9 7 4 1 0 0 0 0 0 1 1 2 1 1 1 1 2 3 3 4 4 4 5 5 4 3 3 3 2 1 1 1 0 0 0 1
0 0 0 0 0 0 0 0 0 1 3 7 10 9 8 5 2 1 1 1 1 1 2 3 4 4 3 3 3 3 3 4 5 4 4 5 6 4 3 3 3 2 1 1 1 0 0 0 0
0 0 0 1 1 1 0 0 1 2 5 8 9 9 7 6 3 3 3 3 3 3 4 6 7 7 5 4 3 3 3 4 5 4 4 5 4 4 3 3 3 2 0 0 1 0 0 0 0
0 0 1 2 3 2 1 0 1 3 5 8 9 9 7 6 4 4 5 5 5 5 5 7 8 8 7 5 4 3 3 3 4 4 4 4 3 2 2 1 1 1 0 0 1 1 1 0 0
0 0 1 3 3 3 2 1 2 3 5 8 10 9 7 6 5 4 5 6 6 5 6 7 8 9 10 8 6 4 3 3 3 4 4 4 2 1 1 0 0 0 0 0 0 2 2 1 0
0 0 0 1 2 2 1 1 3 3 4 8 11 10 8 6 4 4 4 6 6 6 7 8 9 10 11 12 10 8 6 6 5 4 4 4 4 2 2 2 1 0 0 1 2 4 4 2 1
0 0 0 0 1 1 1 1 2 3 3 7 11 11 11 8 5 3 4 6 6 6 7 9 11 13 14 14 14 12 11 10 8 6 6 7 6 6 5 4 3 2 2 4 5 6 6 4 2
0 0 0 0 0 0 0 1 2 4 4 8 11 12 13 11 8 6 6 6 7 8 10 13 16 17 17 16 15 14 14 13 11 9 8 9 9 9 8 7 5 5 6 6 5 5 5 4 3
0 0 0 0 0 0 1 1 2 4 6 8 9 10 10 12 12 11 10 8 9 10 13 17 20 21 20 18 17 15 15 14 12 10 10 10 10 10 10 9 8 8 10 9 6 5 5 4 4
0 0 0 0 0 0 1 2 3 3 5 7 8 7 7 9 13 16 15 12 11 12 14 17 22 23 21 20 19 18 18 16 13 11 10 10 11 11 12 12 11 11 12 12 11 10 8 7 6
0 0 0 0 0 0 0 1 3 3 4 7 8 7 7 8 13 17 17 14 13 13 14 18 22 24 23 22 22 22 22 18 14 11 9 9 12 13 14 14 14 13 13 15 15 14 12 11 10
0 0 0 0 0 0 0 0 2 3 5 8 9 8 9 11 14 17 17 16 15 15 16 18 22 25 26 25 25 25 24 21 16 10 7 7 10 12 13 14 14 13 13 14 15 16 15 14 13
0 0 0 0 0 0 0 0 2 3 4 6 8 10 12 14 16 18 19 19 19 18 17 18 22 26 28 28 28 27 25 23 18 11 7 7 8 9 10 11 12 13 12 13 15 16 15 15 15
0 0 0 0 0 0 0 1 2 4 4 4 7 10 13 16 18 21 22 21 21 21 19 20 24 27 28 29 29 29 26 22 18 13 9 7 7 8 10 10 11 12 12 14 15 15 15 15 16
0 0 0 0 0 0 0 1 3 4 3 4 6 10 14 16 21 25 25 23 23 23 22 23 27 29 28 28 29 29 26 21 16 13 11 9 9 10 12 12 12 12 14 16 17 16 15 15 14
0 0 0 0 0 0 0 1 2 2 3 5 8 12 16 18 22 26 27 25 25 25 25 26 30 32 31 28 28 30 27 22 17 15 13 11 12 13 13 13 12 13 17 19 19 17 16 15 14
0 0 0 0 0 0 0 1 2 1 2 5 11 16 19 21 23 26 28 28 27 27 27 29 32 34 34 30 28 28 26 22 19 17 14 13 14 14 13 11 11 14 18 20 19 17 15 15 14
0 0 0 0 0 0 0 1 2 2 1 4 9 16 22 24 25 28 30 30 29 29 29 31 33 33 33 30 27 25 23 20 17 15 14 13 13 11 10 9 11 13 15 17 18 17 15 14 13
0 0 0 0 0 0 0 1 2 1 1 2 6 15 23 26 26 28 32 32 31 31 31 32 33 31 29 28 28 25 21 17 14 13 12 11 10 8 8 9 10 11 11 14 17 18 15 13 12
Wind_Speed
12 9 6 5 5 3 10 9 7 7 7 7 6 5 6 8 7 7 6 5 6 7 8 9 8 7 8 8 7 8 9 9 10 9 10 10 11 11 11 11 10 10 10 9 9 9 9 9 8
8 6 5 5 1 7 11 9 9 9 7 6 6 6 7 9 8 7 6 5 6 7 8 9 9 8 8 7 7 8 8 9 9 9 9 9 10 10 11 11 10 10 9 9 9 9 9 8 8
6 5 5 1 6 9 10 9 9 8 6 5 5 6 7 7 7 6 7 7 7 8 8 11 9 8 8 8 7 8 8 8 8 8 9 9 10 10 10 10 10 9 8 8 8 8 7 7 7
5 5 4 2 10 11 8 7 6 6 6 5 5 7 8 7 5 7 9 7 8 8 9 12 9 9 9 8 7 7 8 8 8 8 8 9 9 9 9 9 9 9 8 7 7 6 7 7 6
5 4 2 7 12 9 7 6 5 5 6 6 6 9 10 6 8 10 9 8 8 8 9 11 10 9 8 8 8 7 7 7 7 7 8 8 8 8 8 8 8 8 7 6 6 6 6 6 6
5 3 4 9 11 8 7 5 5 6 7 6 6 9 9 6 8 9 9 8 8 8 9 11 11 9 8 8 8 7 7 7 7 7 7 7 7 6 7 7 7 6 6 5 5 5 5 5 5
3 3 7 9 9 8 6 4 4 5 7 6 5 7 8 7 8 8 9 8 7 7 8 8 9 9 9 8 7 7 7 6 6 7 7 7 6 6 6 7 7 6 6 5 5 5 5 5 5
4 1 6 8 7 9 6 5 4 4 7 6 3 5 8 9 9 9 9 8 7 6 7 7 6 7 6 8 8 7 6 6 5 6 6 6 6 6 6 7 6 5 5 5 4 4 4 5 6
5 1 7 8 6 7 5 5 5 4 7 6 5 6 10 13 11 10 9 8 7 6 6 6 6 6 5 5 8 7 7 6 5 6 6 4 4 5 5 5 5 5 4 4 4 4 4 6 8
3 4 9 6 5 5 4 4 5 5 6 7 8 9 13 12 11 9 8 8 7 7 6 5 4 5 4 4 5 3 3 4 2 2 3 2 2 1 2 6 4 4 4 5 5 5 7 8 5
2 4 5 4 4 3 4 4 4 4 5 5 8 12 13 11 10 8 8 7 7 6 5 5 5 4 3 3 3 2 2 2 2 3 1 1 0 1 1 1 3 3 5 3 5 6 4 3 2
1 3 2 2 3 2 3 4 3 2 5 6 9 12 12 11 9 8 7 7 6 6 5 4 4 4 2 2 2 2 1 2 1 2 0 0 0 0 1 0 0 1 1 1 2 2 2 2 3
1 2 2 1 2 3 3 4 3 4 5 8 10 11 11 10 9 8 6 6 6 5 5 4 4 3 3 2 1 2 1 1 2 1 1 0 0 0 0 0 0 1 1 2 2 2 2 3 4
2 1 0 1 2 3 3 3 3 4 6 9 10 10 10 9 9 8 7 7 6 5 5 4 4 4 3 3 2 1 1 1 0 1 1 0 1 1 1 1 1 1 1 1 1 2 2 2 2
3 3 3 2 1 2 3 4 3 6 7 9 9 9 9 9 9 8 8 7 6 6 5 4 5 5 4 3 2 2 2 2 1 1 1 0 1 1 1 1 1 1 1 1 2 2 2 2 2
6 6 2 3 1 2 6 3 6 7 8 8 8 8 8 8 8 8 8 7 6 6 6 4 3 4 4 3 2 2 1 1 1 1 1 0 0 1 2 1 1 2 1 1 1 2 1 1 1
6 3 1 3 2 2 4 1 6 7 7 7 7 8 8 8 8 8 8 7 7 6 5 5 4 4 4 4 3 2 1 1 1 1 1 0 1 1 1 1 1 2 1 1 2 0 1 1 1
3 3 1 0 2 3 4 1 4 6 6 6 7 8 8 9 9 9 8 7 7 7 6 6 5 5 4 4 3 2 1 1 1 1 0 1 1 1 2 1 1 2 1 1 1 1 1 2 2
6 6 4 1 1 3 3 2 3 6 6 6 7 7 7 8 9 9 9 8 8 8 7 7 6 5 4 3 3 3 2 2 1 1 1 1 1 0 1 1 0 1 1 2 2 2 2 1 1
8 7 4 2 0 4 3 3 2 5 6 6 6 7 8 7 8 9 9 9 9 9 8 8 7 6 6 4 3 2 2 2 1 1 1 1 1 1 1 1 2 1 1 1 2 2 3 1 0
9 8 5 3 3 5 5 5 5 5 6 6 6 6 7 7 8 9 9 9 9 9 9 7 7 7 6 5 4 3 3 3 2 2 1 1 1 1 2 2 2 2 2 1 2 2 2 2 0
8 5 5 5 7 4 5 4 4 4 6 6 7 7 7 7 8 8 9 9 9 9 8 8 8 7 7 6 5 5 3 3 2 2 1 1 1 1 2 2 2 3 2 1 3 1 2 3 2
4 3 5 7 8 7 5 7 2 4 4 5 6 6 7 8 8 8 8 8 8 8 8 8 8 7 7 6 6 6 4 3 2 2 1 2 1 2 2 2 2 2 2 2 3 2 3 2 2
4 5 6 8 9 9 6 7 2 2 1 2 4 5 6 6 7 7 7 7 7 7 7 8 9 8 8 7 6 6 4 3 2 2 1 2 2 2 2 2 2 3 2 2 2 3 3 2 3
9 9 7 8 8 6 3 6 2 1 1 1 2 3 5 6 7 7 8 8 8 8 8 8 8 8 8 8 7 6 6 5 4 4 3 3 2 2 1 2 2 3 2 3 3 3 3 3 3
9 11 8 7 7 5 6 6 1 2 1 0 1 3 4 6 6 7 8 8 8 8 8 8 8 8 8 8 7 6 6 5 4 4 4 3 2 2 2 2 3 3 3 3 2 3 3 2 3
9 9 9 10 10 9 5 3 3 3 2 1 2 3 4 4 5 6 7 7 8 8 8 7 7 7 8 8 7 6 6 5 4 4 4 3 2 2 2 3 3 3 3 4 4 3 3 3 4
8 7 7 9 8 10 8 7 4 2 2 2 2 2 2 3 4 5 6 6 6 7 7 7 6 6 7 7 7 5 6 5 5 4 3 3 3 3 3 4 3 3 3 4 4 4 2 3 3
9 9 8 8 9 11 10 4 2 1 1 2 1 1 1 2 3 4 4 5 6 6 6 6 6 6 6 6 6 5 5 4 4 4 4 4 4 3 4 4 4 4 4 3 3 4 3 4 4
9 10 11 10 9 10 11 4 4 1 0 1 1 0 0 1 2 4 5 5 5 5 5 6 6 6 6 6 6 5 5 4 4 4 3 3 4 4 5 5 4 4 4 4 4 4 4 4 4
Wind_Direction
176 181 202 228 228 102 67 63 62 67 65 60 68 59 55 43 30 62 83 107 115 124 124 130 123 122 119 118 120 120 120 124 127 132 138 141 145 147 147 144 142 139 136 135 133 131 131 132 133
171 179 222 237 289 78 71 65 66 63 72 85 82 67 68 63 56 88 109 116 123 118 127 125 123 123 118 117 118 119 120 123 127 134 140 141 143 146 147 144 144 141 138 138 139 137 137 140 140
181 218 255 248 52 58 69 66 72 81 84 81 81 58 51 60 78 97 108 128 118 110 117 115 124 122 121 120 120 119 121 123 128 137 141 141 139 140 147 146 146 144 141 139 141 143 145 146 147
211 224 228 77 72 63 66 70 79 91 85 74 88 86 74 56 76 105 120 127 114 112 116 115 123 119 121 121 119 120 122 125 129 136 141 141 140 142 145 145 144 143 145 147 148 148 153 153 154
237 249 140 84 72 69 68 68 76 80 82 83 89 93 85 67 93 112 124 120 112 109 108 115 120 119 123 123 120 120 124 126 126 127 137 144 145 145 146 147 149 150 153 157 158 157 159 164 166
241 239 76 76 77 75 76 82 83 75 84 89 93 96 86 100 112 120 122 119 109 107 108 113 120 118 118 121 121 121 122 122 121 122 127 131 141 149 151 153 155 159 163 167 170 168 171 174 178
301 29 67 74 81 83 72 74 66 77 87 87 97 98 107 118 122 126 123 117 109 109 112 117 128 133 130 124 122 121 121 121 123 127 129 129 133 143 160 162 161 164 169 179 183 180 182 185 186
296 298 80 74 70 79 89 96 71 64 80 92 102 102 119 132 137 132 129 121 114 113 114 117 121 122 137 138 131 126 124 123 123 129 130 138 147 149 154 170 161 170 178 186 187 184 186 188 192
262 301 64 61 57 81 104 108 97 92 105 105 87 81 110 134 143 141 135 128 126 124 122 120 122 125 130 131 129 141 142 137 149 147 144 170 165 146 158 133 145 175 181 187 192 194 196 203 193
277 40 55 48 48 76 101 101 122 140 123 120 113 107 124 142 150 148 142 140 138 134 131 127 127 126 129 126 128 141 147 136 151 114 141 155 120 129 127 126 161 180 186 193 196 202 205 220 197
350 33 49 58 53 65 108 115 132 142 116 127 135 138 143 149 155 154 147 144 137 136 132 134 128 123 122 129 130 128 130 126 137 113 121 86 85 139 139 151 168 180 192 194 181 202 214 217 213
344 35 31 49 64 92 105 118 114 88 72 105 129 143 150 157 160 158 150 143 139 140 141 139 130 130 129 110 126 142 138 136 127 115 167 136 119 355 64 298 276 204 196 192 215 210 223 233 225
329 23 22 54 117 120 129 126 106 102 103 122 136 149 157 161 161 156 153 147 145 149 150 145 141 138 141 146 199 150 134 121 123 100 121 245 231 278 8 288 269 252 232 213 221 225 223 229 221
351 321 113 105 129 145 154 132 140 120 133 139 147 156 160 163 163 159 163 163 160 160 158 150 156 155 158 165 180 172 166 143 153 156 113 316 331 7 337 287 279 273 252 274 260 251 242 241 239
254 236 165 139 181 165 201 154 135 136 153 156 157 159 162 168 170 173 173 171 165 164 163 164 165 161 168 183 189 183 181 154 156 136 107 84 321 2 313 320 291 330 324 263 246 251 247 235 238
224 231 183 123 190 192 249 99 120 149 165 164 163 163 171 174 179 178 176 176 171 167 162 168 173 166 170 180 194 194 182 150 158 135 115 138 323 296 293 318 339 346 308 286 248 239 246 255 259
214 248 53 124 166 209 249 70 123 159 172 169 171 172 177 177 186 183 183 179 177 174 170 171 177 176 176 173 185 195 178 184 182 151 120 107 282 297 283 335 8 293 291 288 275 42 285 268 274
274 280 277 38 130 232 241 168 135 172 185 178 175 180 184 186 186 185 187 182 178 176 178 177 175 176 182 177 178 193 186 184 187 164 89 284 272 290 291 254 308 295 320 304 322 297 282 278 278
281 272 270 324 74 260 256 253 165 177 194 188 184 186 189 192 182 184 186 185 181 180 182 183 182 173 182 183 192 184 182 194 179 178 140 234 284 304 286 314 339 295 327 320 308 293 262 257 267
247 252 246 209 358 280 277 267 182 183 204 202 197 195 195 190 182 185 189 189 188 185 186 186 187 182 189 178 189 196 200 199 169 191 133 243 273 282 244 292 293 315 289 274 292 294 297 304 306
235 252 257 262 257 237 260 220 185 175 196 201 205 205 200 197 191 187 191 193 192 190 190 189 188 186 190 187 187 185 188 209 192 194 176 198 255 274 312 306 302 303 280 274 276 279 283 305 316
234 240 254 243 250 245 263 265 163 174 190 201 203 204 203 197 195 190 191 194 194 190 187 186 184 185 185 188 193 198 204 206 201 223 177 204 222 266 281 295 304 297 294 284 265 283 282 278 277
258 240 237 244 253 259 238 266 162 171 201 201 200 202 201 195 194 191 191 190 190 184 183 182 180 182 184 190 191 205 215 208 204 217 187 253 224 248 270 280 287 283 282 292 298 291 282 270 277
200 204 215 232 243 246 247 262 248 151 257 226 195 200 195 190 189 187 182 180 180 176 180 180 178 182 185 190 194 204 212 220 227 243 246 245 238 243 252 266 276 275 293 284 275 275 259 278 292
217 230 226 224 226 239 211 250 270 26 1 295 216 190 184 184 186 181 179 179 180 180 184 185 183 187 190 193 197 201 208 211 216 235 228 253 267 260 265 282 275 283 287 282 278 261 280 275 272
221 242 254 263 260 238 194 240 196 97 75 345 204 175 174 181 183 180 180 182 183 184 185 186 185 190 194 195 198 202 210 222 225 228 248 244 262 280 294 270 268 275 279 280 277 266 257 258 269
224 238 264 270 269 268 243 226 211 186 195 180 171 172 178 183 182 179 176 180 180 180 182 183 184 190 196 197 195 201 211 226 237 235 239 246 256 259 262 259 257 265 269 271 266 266 269 267 266
260 250 244 256 262 264 251 243 242 224 237 204 188 187 171 178 177 169 169 169 171 171 172 176 178 190 197 199 202 199 209 216 228 240 244 256 259 269 272 266 260 260 257 255 259 257 259 264 265
205 223 244 258 266 270 270 260 68 225 241 245 226 231 187 173 161 151 152 155 158 160 165 173 173 187 196 197 195 205 206 215 223 230 237 244 254 256 259 263 262 260 259 258 258 264 262 258 260
247 241 238 249 250 259 274 275 97 137 254 312 317 96 93 140 148 143 139 140 148 156 163 171 179 189 196 195 192 199 201 206 216 226 236 245 254 256 255 257 256 260 260 263 258 262 261 257 256